Wind_Speed
6 7 8 9 10 10 10 10 11 12 12 13 13 13 14 13 13 14 14 13 13 13 12 13 13 13 12 12 11 10 9 8 8 7 7 8 9 9 9 8 6 6 5 4 3 2 1 1 1 0 1 1 2 2 3 3 3 3 2 2 2 2 2 2 3 3 3 2 3 4 4 4 4 4 6 6 6 6 5 5 6 8 7 7 7
6 8 9 10 11 11 11 10 12 13 13 14 14 14 15 15 14 14 14 14 13 13 13 12 12 12 12 11 10 10 9 9 8 8 7 8 8 9 8 7 6 5 5 4 3 3 3 2 2 1 1 1 1 1 2 2 3 3 3 2 2 2 2 3 5 4 4 2 3 4 4 3 2 4 6 6 6 6 6 5 6 7 6 6 8
7 8 10 11 12 12 11 11 12 13 13 14 14 14 15 15 15 14 14 14 14 14 13 12 12 11 11 10 9 8 9 8 7 6 7 7 9 9 8 7 6 6 5 5 4 4 4 3 3 3 2 1 1 0 1 1 2 3 3 3 3 2 1 2 4 5 5 5 3 3 3 2 1 1 4 5 5 4 5 5 4 6 6 6 8
8 8 9 11 13 13 12 11 12 13 13 15 15 15 16 16 17 16 15 15 14 14 13 12 11 10 8 8 7 6 6 7 5 6 6 7 9 9 8 7 7 6 6 6 5 4 4 4 4 4 3 2 1 0 0 1 1 2 3 3 3 3 2 1 2 4 5 5 4 3 3 3 1 3 5 5 5 4 4 5 4 6 7 6 7
8 9 9 11 13 14 13 12 13 13 14 15 16 16 16 16 18 17 16 15 14 14 14 12 12 11 8 7 7 5 5 6 7 7 8 8 8 9 9 8 7 7 6 6 5 4 4 4 4 4 3 2 2 1 1 1 1 1 2 2 2 3 4 3 2 2 3 4 4 4 3 2 2 5 6 4 6 6 5 5 4 6 8 6 6
9 9 10 11 13 14 14 14 14 14 14 15 16 16 16 17 18 18 17 16 14 15 15 13 12 12 11 10 9 8 7 8 8 8 8 8 8 8 8 8 8 8 7 7 6 5 5 5 4 4 4 3 2 2 2 2 2 0 1 1 1 2 4 5 3 1 2 2 2 2 2 3 4 5 5 3 4 7 7 7 5 5 8 7 5
9 10 11 12 13 14 15 15 15 14 15 15 15 16 16 17 19 19 18 17 15 16 16 14 13 13 12 11 11 10 9 8 7 6 7 7 7 6 7 7 8 8 8 7 6 6 5 5 5 4 4 4 3 4 4 3 2 1 1 2 2 2 3 4 4 3 2 2 3 2 2 4 5 5 5 4 4 5 7 7 6 6 8 7 6
10 10 11 12 14 15 15 16 16 15 15 15 16 16 17 17 19 19 18 17 17 17 17 15 14 13 13 13 11 10 9 8 7 6 6 6 6 6 6 7 7 7 7 7 7 7 6 5 5 5 5 4 4 5 5 4 3 2 2 2 3 3 3 3 4 5 4 3 2 4 4 4 5 5 5 6 5 4 5 6 6 6 7 7 6
11 11 12 13 15 15 15 15 16 15 15 16 16 16 17 17 18 19 18 17 17 17 18 17 15 14 14 13 11 10 9 7 6 6 6 6 6 6 6 6 7 8 8 8 8 8 8 7 6 6 6 6 6 6 5 4 4 3 4 4 4 3 3 3 3 4 5 4 3 4 5 6 7 6 5 6 6 5 5 5 6 6 6 6 6
11 11 11 14 16 16 15 15 15 16 15 15 16 16 18 18 18 19 19 18 18 18 18 18 16 15 14 14 12 11 9 6 5 5 5 6 7 7 7 6 7 8 9 9 9 9 9 9 8 8 7 7 6 6 5 5 5 5 5 5 5 4 4 4 4 5 5 5 5 4 5 6 6 6 6 6 6 6 6 6 8 7 6 6 5
11 11 12 14 16 16 16 16 16 16 15 16 16 16 17 18 19 19 19 18 18 19 19 18 17 16 16 15 13 12 10 8 6 6 6 7 7 8 8 8 8 8 8 9 9 10 10 10 10 9 8 7 7 7 7 6 6 6 6 6 5 5 5 5 5 6 6 6 6 5 5 6 5 5 6 6 6 6 6 7 8 8 8 7 5
11 11 12 13 14 17 17 16 17 16 15 16 17 17 17 18 19 20 19 18 18 19 20 19 18 18 17 16 15 13 11 9 8 8 7 8 8 8 8 8 8 8 9 9 10 10 10 10 10 9 8 8 8 7 7 7 6 6 6 6 6 5 5 5 6 7 6 6 7 6 6 7 6 6 6 6 7 7 6 7 8 8 8 8 6
12 12 12 11 13 16 18 18 18 17 16 17 18 17 17 17 18 20 20 19 18 19 20 20 19 18 18 17 15 14 12 10 9 9 9 9 8 9 9 9 9 9 10 10 10 10 10 10 10 10 9 8 8 7 7 7 7 7 6 6 6 5 5 6 6 7 7 7 7 7 7 7 7 6 7 7 7 7 7 7 8 9 8 8 7
11 11 12 12 13 15 18 19 20 19 19 19 18 17 16 16 18 19 20 20 19 19 19 20 20 19 18 17 16 14 13 12 11 10 10 9 9 9 10 10 10 10 10 10 10 10 10 10 10 10 9 9 8 8 7 7 7 7 6 6 7 6 5 6 6 7 7 7 7 7 8 8 7 7 7 8 8 8 9 8 8 8 9 10 8
10 10 12 13 15 16 17 18 19 20 21 20 18 18 17 17 18 19 19 20 20 19 19 20 20 19 18 18 16 15 14 14 13 11 10 9 10 10 10 10 10 9 9 9 9 9 9 9 10 10 10 9 8 8 7 7 6 7 7 7 7 6 6 6 7 8 8 8 8 8 9 9 8 8 8 8 8 8 8 9 8 7 6 8 8
8 9 11 13 16 17 16 16 16 18 19 19 18 18 18 18 19 20 20 20 20 20 19 20 19 19 18 18 17 16 15 15 14 12 11 11 10 10 10 10 10 8 8 8 9 9 10 10 10 10 9 9 8 7 7 7 6 7 7 7 8 7 7 7 7 8 8 8 8 9 9 9 9 9 9 9 8 8 8 8 8 7 5 6 6
5 7 9 11 14 16 16 16 16 15 16 17 18 18 19 19 19 20 21 20 20 20 20 20 19 19 19 19 18 17 17 16 15 14 13 12 11 11 11 10 10 9 9 9 9 10 10 10 10 9 8 8 8 8 7 7 7 7 7 7 8 7 6 7 8 8 8 9 9 8 8 9 8 8 9 9 7 7 8 8 7 7 5 5 5
3 5 7 9 11 14 16 16 15 15 16 17 17 17 18 18 18 19 20 21 21 20 21 20 20 19 19 19 19 18 18 17 16 15 14 13 13 12 12 11 11 10 10 9 9 9 10 9 9 8 8 8 8 8 7 7 7 8 8 8 8 7 7 7 8 8 9 9 9 8 8 8 8 9 9 9 8 7 8 8 7 7 5 5 5
0 2 4 6 9 12 14 15 15 16 17 18 17 17 17 17 18 19 19 21 21 20 20 20 20 20 19 19 19 19 18 17 16 15 15 14 14 13 13 12 11 11 11 10 10 9 9 9 9 9 9 9 9 9 8 8 8 8 8 8 8 7 7 8 8 8 8 7 7 8 8 8 9 9 10 10 9 8 8 8 8 7 6 5 5
2 1 2 4 7 10 12 14 15 16 17 17 16 16 17 16 17 18 19 19 19 19 19 20 20 20 19 18 19 19 18 17 17 16 16 15 15 14 13 13 12 12 12 11 11 10 9 9 9 9 9 9 9 9 9 8 8 8 8 8 7 6 6 7 8 8 7 7 7 7 8 8 9 9 10 10 10 9 8 8 8 7 6 5 5
3 2 1 1 4 7 10 12 13 15 16 15 15 16 16 15 16 19 20 19 19 19 18 18 19 19 19 19 19 19 19 18 18 17 17 16 15 15 14 13 13 12 12 11 11 10 10 10 9 9 9 9 8 8 7 7 8 8 8 9 8 6 7 8 8 8 9 8 7 7 8 8 9 10 10 10 11 10 9 8 7 6 6 6 5
4 3 2 1 2 4 7 10 12 14 15 15 16 16 15 16 19 19 19 19 19 19 19 19 18 18 19 20 19 19 18 18 18 18 18 17 16 16 15 14 14 13 12 12 11 11 10 10 10 9 9 8 7 7 7 7 7 8 9 10 9 8 8 9 9 10 10 10 9 10 12 11 10 11 11 12 12 10 9 9 7 6 7 6 4
4 3 2 1 1 3 5 8 10 12 13 14 15 15 15 16 18 17 17 18 18 18 18 19 19 18 19 19 19 19 18 19 19 19 19 19 17 16 16 16 15 14 13 13 12 12 11 10 10 9 8 8 7 7 7 7 7 7 8 9 9 9 9 10 11 11 10 12 14 16 15 13 12 12 12 13 12 9 7 8 7 6 6 6 4
3 3 3 2 1 2 4 6 8 10 11 13 14 14 14 15 15 15 16 17 16 16 17 18 19 19 19 19 19 19 19 19 19 19 20 19 18 17 16 16 16 15 14 13 13 12 11 11 10 9 9 8 8 8 8 8 7 7 8 9 9 9 10 12 12 12 12 14 16 16 15 14 13 14 13 11 12 11 8 7 7 6 6 6 5
3 4 4 3 3 2 3 4 6 8 9 10 12 13 14 14 14 15 15 15 15 16 16 17 17 18 18 19 19 19 20 20 20 20 20 20 19 18 17 17 16 16 15 14 13 12 12 12 12 11 10 10 9 9 9 9 8 8 9 10 10 10 11 13 12 11 13 16 16 15 15 13 12 11 11 10 11 12 10 7 6 6 5 5 5
4 4 4 4 4 4 4 4 5 6 7 8 9 11 13 13 14 14 14 14 14 15 16 16 16 16 17 18 19 19 20 20 20 20 20 19 19 19 18 18 17 16 16 15 14 13 13 13 13 12 11 10 10 10 10 10 10 10 10 10 9 10 11 12 12 11 12 14 14 13 13 12 10 10 11 9 9 11 11 8 7 7 6 6 6
3 3 4 4 3 4 4 4 4 5 6 7 8 10 11 12 13 13 14 14 14 15 17 18 17 17 17 18 19 19 19 19 20 20 19 19 19 18 18 18 17 17 16 16 16 15 14 14 14 13 12 11 12 11 10 10 10 10 8 8 9 9 10 10 11 11 10 11 11 11 11 11 10 10 10 9 8 10 12 11 8 6 5 6 6
2 3 3 4 4 4 4 4 5 5 5 5 7 9 10 11 12 11 12 13 13 14 17 18 19 18 18 18 18 18 18 18 18 18 18 18 18 18 18 17 17 17 17 17 17 16 16 15 14 13 12 12 12 11 10 10 10 8 7 8 9 9 9 9 10 10 9 9 9 9 10 10 8 8 9 9 9 10 12 12 9 5 4 5 5
1 2 3 3 3 4 4 5 5 6 6 6 6 7 9 11 12 11 11 12 12 14 15 17 18 18 18 18 18 18 17 17 17 18 18 18 18 18 18 18 17 17 17 17 17 16 16 15 14 13 13 13 13 12 12 11 9 7 8 8 8 9 9 9 9 9 8 8 8 8 8 8 8 9 10 9 8 9 11 10 7 4 3 4 3
1 1 1 2 3 3 4 5 5 5 6 6 6 5 6 8 10 11 12 13 13 14 16 17 17 18 18 18 18 17 17 18 18 18 18 18 18 18 18 18 18 18 18 17 16 16 16 16 15 14 14 14 13 12 14 13 10 8 8 8 8 9 9 9 9 8 7 8 8 7 6 8 9 8 8 9 8 8 9 7 3 2 1 2 1
1 0 1 2 3 4 4 5 5 6 6 6 5 5 6 7 7 9 11 13 14 15 17 18 18 18 18 18 17 17 18 18 18 19 19 18 18 18 17 18 18 18 18 17 17 17 17 17 16 16 15 15 13 13 16 15 12 10 9 9 9 9 9 9 9 8 7 8 7 6 5 5 5 5 6 8 8 6 6 5 2 1 1 1 1
0 1 2 3 3 4 5 6 6 6 6 6 6 6 6 6 6 7 9 11 13 15 16 18 19 19 19 18 18 17 18 19 19 20 20 19 18 18 18 18 18 17 17 17 18 18 17 17 16 16 16 14 13 15 18 17 14 12 10 9 9 8 8 9 8 7 7 7 6 7 5 3 5 8 7 6 6 5 3 3 2 3 3 3 4
0 1 2 3 4 5 6 7 7 7 6 6 6 7 7 7 7 8 8 9 11 13 15 17 18 20 20 20 19 18 19 20 20 20 20 19 19 18 18 18 18 18 17 17 17 17 17 17 16 15 16 14 14 17 19 17 15 13 10 9 9 8 8 8 7 6 7 6 6 6 5 5 6 8 6 5 6 5 5 7 9 10 11 10 9
1 2 2 3 5 6 7 7 7 7 7 7 7 7 8 8 8 8 8 9 10 11 14 16 18 19 20 21 21 20 20 21 20 20 19 19 19 19 19 18 18 18 17 17 17 17 17 17 16 15 16 14 14 18 19 16 14 12 11 9 9 8 8 7 7 7 7 6 6 6 6 6 5 6 7 8 9 10 9 10 12 14 15 14 12
2 3 3 4 6 7 8 7 7 8 9 9 8 8 9 9 9 9 9 9 10 11 12 14 17 18 19 20 21 22 22 21 21 20 19 19 19 19 18 18 17 17 17 17 17 16 16 16 15 15 15 13 14 18 17 15 14 12 10 9 8 7 6 5 5 5 3 1 3 4 6 7 6 6 9 11 12 12 11 11 13 14 14 13 12
3 4 4 5 6 7 7 7 8 9 9 9 9 9 9 9 10 10 10 10 10 11 13 14 15 17 18 20 21 22 23 22 21 20 19 19 20 19 18 17 16 15 15 15 15 15 15 15 15 15 15 13 14 17 16 14 13 11 9 8 7 6 6 6 5 4 3 3 3 3 5 7 7 9 12 13 13 13 13 14 15 15 15 15 14
4 4 5 6 6 7 8 8 9 9 9 9 9 9 10 10 10 10 10 11 11 12 14 15 16 16 18 19 20 21 23 23 22 22 21 21 20 20 19 17 16 15 14 14 14 14 14 14 15 15 14 13 15 17 15 14 12 11 9 8 8 8 9 9 7 5 4 4 4 6 8 8 9 12 14 14 14 15 15 16 16 16 15 15 15
4 5 6 7 7 7 8 9 9 9 9 9 10 10 10 10 10 10 11 11 12 13 14 15 16 17 18 19 19 20 22 23 23 24 24 22 21 20 19 18 16 15 14 14 13 13 13 14 15 15 14 14 16 17 15 13 12 11 11 10 9 9 8 8 7 6 5 5 6 8 10 10 12 14 15 16 16 16 16 17 17 16 15 14 12
3 5 6 7 8 8 8 8 8 9 9 9 10 10 9 10 10 10 11 12 13 14 14 14 15 16 18 19 19 21 21 23 24 24 24 24 22 21 19 17 16 16 14 14 14 14 14 14 12 13 15 15 15 15 14 12 11 11 12 11 10 9 8 8 8 9 9 9 9 10 11 14 16 17 17 18 18 16 16 15 15 15 15 13 11
4 5 7 8 8 8 8 8 8 9 9 10 10 9 9 10 10 10 11 12 13 13 14 15 15 15 17 18 20 21 21 23 23 22 23 24 23 21 19 17 16 16 14 15 15 15 15 14 11 11 12 11 11 12 13 11 11 14 15 12 10 10 11 11 11 11 12 12 11 11 14 18 20 20 19 19 18 17 17 17 15 16 16 14 14
4 6 7 8 8 8 8 9 9 10 10 10 10 10 10 10 10 10 11 11 12 13 13 14 15 16 16 17 19 21 22 23 22 21 23 25 23 20 19 17 17 16 16 17 17 15 14 13 11 10 9 8 8 11 13 13 14 17 16 13 13 15 16 15 15 14 14 15 14 14 17 20 20 20 19 18 18 18 19 19 19 19 19 17 17
4 6 7 8 8 8 9 9 9 10 10 10 10 11 11 10 10 11 11 12 13 13 13 14 15 16 17 17 18 20 22 23 22 21 21 21 19 17 17 18 19 19 19 18 16 15 14 13 13 12 11 9 8 9 14 16 16 18 17 15 15 17 16 16 17 17 18 20 18 17 20 21 20 19 18 17 18 19 20 21 20 19 18 16 16
5 6 6 7 8 8 9 9 9 10 10 10 10 11 11 11 11 12 12 13 13 13 13 14 14 14 16 17 17 18 20 22 22 20 18 16 16 17 18 20 20 20 20 19 18 16 15 15 15 14 12 10 9 10 14 17 17 18 19 17 16 17 17 19 22 24 25 24 20 20 22 22 20 19 19 19 20 20 20 19 17 16 16 16 15
5 6 6 7 8 8 9 9 9 10 10 10 10 11 11 12 12 12 13 13 13 13 13 13 13 13 13 14 16 17 19 21 21 20 16 15 17 19 20 20 20 20 21 20 19 18 17 17 16 16 14 12 10 10 11 14 16 17 18 18 20 21 22 24 25 25 25 23 21 23 24 22 21 21 21 20 20 18 17 16 16 16 16 14 12
4 5 6 6 7 8 9 9 9 10 10 9 9 11 12 13 13 13 13 13 13 12 12 11 12 11 10 11 13 14 16 17 18 18 15 15 17 18 18 19 21 21 20 18 18 18 18 17 18 19 18 15 15 15 15 16 18 20 22 24 25 26 26 26 25 24 24 24 25 26 25 23 23 22 21 19 17 16 16 18 18 17 14 13 13
4 4 5 6 6 7 8 9 9 9 9 9 9 10 11 13 14 14 13 12 11 10 9 8 8 7 7 7 8 8 8 8 9 11 12 14 16 17 18 19 21 21 19 18 18 20 20 20 20 21 20 19 21 23 22 20 20 23 26 28 29 28 27 24 23 25 27 28 28 27 26 25 23 22 20 19 19 19 19 19 18 16 14 14 15
3 3 4 5 5 6 8 8 9 8 9 9 10 10 11 12 13 13 12 9 8 7 7 6 6 5 4 3 2 4 5 5 6 8 9 9 10 13 14 15 16 18 18 17 18 20 22 22 21 21 22 23 24 25 24 23 22 25 27 26 26 27 25 25 27 30 31 30 29 27 26 25 23 22 21 20 19 18 17 15 15 15 15 15 14
1 2 3 4 5 6 7 8 8 8 9 10 10 10 10 11 11 10 9 8 8 8 9 9 10 10 10 11 11 13 15 17 17 16 16 14 13 13 13 10 7 10 16 18 19 20 22 24 25 26 27 26 24 24 25 25 25 27 28 27 25 26 28 31 33 32 31 30 28 27 26 25 23 20 18 16 15 15 15 14 14 14 13 12 11
0 1 2 3 4 6 6 7 7 8 9 9 9 10 10 9 9 8 8 9 11 12 13 14 14 15 16 17 17 18 22 27 29 28 27 24 20 18 19 17 13 8 11 17 21 21 22 26 31 33 31 30 27 26 26 27 27 28 29 29 28 28 29 31 31 31 30 29 27 26 25 22 18 16 15 14 14 14 14 13 11 9 8 7 7
1 1 2 3 4 5 5 6 7 7 8 8 9 9 9 9 8 9 10 12 13 14 15 16 17 18 19 21 22 21 23 29 34 36 36 34 29 25 23 24 22 18 15 18 22 23 21 22 27 31 31 31 30 29 27 28 29 28 27 28 27 26 27 29 30 30 30 27 24 22 19 16 16 15 14 14 13 12 12 10 8 7 6 6 6
2 1 2 3 4 4 4 5 6 6 6 7 8 9 9 9 9 10 12 14 15 15 15 16 17 17 18 20 22 21 21 26 32 36 38 40 39 35 31 30 31 30 28 26 27 28 25 21 22 27 30 29 29 28 27 28 29 28 26 25 24 24 26 28 29 29 27 23 20 18 15 15 16 14 12 12 11 10 9 8 7 7 7 6 6
Wind_Direction
146 166 171 168 165 162 162 163 163 160 162 163 163 163 160 161 160 161 164 164 165 168 170 170 169 171 172 172 172 171 170 167 168 169 165 159 153 156 161 166 168 163 164 165 169 175 186 196 173 141 64 75 48 35 33 32 22 15 15 345 344 5 359 17 15 336 296 275 278 276 267 256 258 277 286 291 299 302 306 316 318 313 318 326 326
158 176 177 174 168 166 166 167 168 165 165 169 168 166 164 163 163 164 166 168 171 171 172 174 174 176 175 175 172 169 172 174 172 173 171 165 163 164 165 170 171 164 165 167 174 186 196 204 192 180 152 110 82 52 42 36 17 17 20 346 340 355 346 12 9 330 295 322 326 296 288 259 254 293 299 307 313 311 314 316 312 310 315 330 329
177 189 181 178 173 170 171 170 173 170 169 173 171 168 168 166 165 168 170 172 174 173 175 176 176 179 179 177 174 169 175 179 173 172 174 172 173 174 172 175 175 173 175 177 184 194 198 205 200 192 182 171 158 86 37 44 24 21 29 15 347 309 300 25 13 344 335 344 317 283 320 312 239 309 326 329 319 320 326 312 311 318 320 335 329
191 197 186 181 177 176 178 174 174 175 174 176 174 172 173 171 169 170 173 175 176 175 176 176 175 178 180 180 178 170 174 181 179 179 183 178 177 180 180 179 182 184 185 188 193 196 196 206 210 198 191 201 200 199 289 354 26 26 37 27 350 315 316 5 13 0 356 351 326 305 315 311 319 348 346 340 322 328 326 310 323 327 324 336 328
200 203 192 184 181 182 183 178 178 179 180 180 178 177 177 175 172 171 173 176 177 176 175 173 175 178 180 181 185 183 180 186 190 188 185 183 183 184 185 184 187 190 190 192 197 195 197 209 216 208 203 221 238 247 274 314 339 22 43 26 357 332 323 326 334 358 17 13 347 330 316 317 350 340 337 335 324 326 319 313 325 324 324 331 328
207 207 200 190 186 186 184 183 184 183 184 185 182 181 179 176 175 173 173 176 178 178 177 175 176 183 188 189 190 192 192 192 193 189 182 184 188 184 183 185 188 192 193 196 198 196 200 209 218 222 218 228 253 268 274 278 275 292 31 334 335 349 322 315 309 323 17 9 335 346 340 325 328 326 321 315 321 323 320 316 315 321 324 323 328
210 209 206 196 190 190 188 189 191 189 186 185 185 183 181 178 177 177 176 177 178 179 180 181 181 186 193 196 195 195 195 193 192 192 184 184 186 182 183 184 187 195 196 197 201 201 202 207 216 226 230 234 240 254 261 263 269 296 335 302 303 320 311 307 307 315 337 321 310 323 303 299 306 307 310 317 317 316 318 314 315 328 324 319 333
211 208 207 201 196 195 194 193 195 194 187 185 186 185 182 181 180 180 180 180 180 180 183 187 187 189 195 199 200 199 198 192 192 200 197 192 190 186 189 186 187 198 201 201 206 208 210 210 214 221 229 235 235 241 250 253 259 264 257 264 266 268 276 294 306 308 306 301 306 306 295 290 290 287 299 311 308 314 320 310 315 326 319 321 336
215 211 206 202 201 200 196 195 198 197 190 186 188 185 183 183 183 183 183 182 182 181 184 190 192 192 194 198 201 203 202 196 193 200 203 205 204 199 199 195 193 201 206 208 211 213 215 213 212 219 225 230 235 238 238 236 239 240 237 242 242 246 259 272 282 288 294 299 295 293 299 298 294 292 290 287 290 309 317 311 318 322 320 326 332
217 214 211 204 202 201 196 194 200 200 193 189 190 187 183 184 185 187 187 186 185 184 185 191 193 194 196 199 202 202 203 204 201 200 201 206 210 208 205 206 205 206 207 209 213 215 216 217 217 220 225 228 233 236 233 232 232 231 232 237 241 249 255 258 264 272 282 294 294 284 285 291 297 302 296 296 305 309 307 312 319 325 332 329 329
216 214 214 207 203 199 193 195 202 203 197 191 191 189 186 185 186 189 191 190 189 188 188 191 195 198 200 202 203 204 204 205 205 205 205 208 213 212 207 208 211 211 210 209 212 214 214 217 221 223 226 227 230 233 235 235 234 231 229 229 236 246 254 262 269 272 272 276 282 276 271 281 292 295 300 309 312 310 313 314 316 328 330 320 331
211 215 215 207 203 196 188 193 202 202 202 198 192 190 189 187 187 190 193 193 193 193 192 194 197 200 203 204 205 206 208 209 209 211 213 215 217 216 210 208 211 213 215 212 211 212 210 214 220 223 226 228 231 235 236 240 244 243 237 234 240 244 251 263 270 276 276 274 281 283 280 288 294 294 301 306 302 306 309 304 312 325 321 316 337
207 213 213 205 206 198 186 190 196 194 202 206 197 191 190 189 189 191 193 194 196 196 196 196 199 201 204 205 205 207 211 214 215 217 220 221 221 220 214 211 211 213 216 215 214 212 209 211 218 221 225 229 233 236 237 243 250 252 249 247 249 250 250 256 265 277 283 285 290 296 297 298 300 299 302 301 298 299 295 295 312 319 315 322 337
210 210 211 206 208 203 192 191 189 186 196 206 200 193 192 190 191 193 194 195 198 200 200 200 201 202 204 205 206 207 211 214 217 221 223 222 222 223 221 217 214 213 215 216 216 217 215 214 217 221 226 229 232 236 240 243 245 251 255 254 255 255 252 253 261 272 279 283 289 297 302 302 301 300 298 297 298 298 299 305 315 317 319 327 331
216 213 212 209 207 208 203 196 189 185 193 200 198 194 194 192 192 194 195 195 199 202 203 203 203 203 204 206 208 209 211 213 216 221 223 223 224 224 224 225 221 215 214 215 216 219 221 219 220 224 227 228 232 236 240 241 239 244 250 253 256 254 249 252 259 268 274 278 282 287 293 295 297 298 297 298 299 299 304 310 315 317 323 327 325
216 216 216 212 208 208 206 202 199 193 192 195 194 194 195 194 192 194 196 197 199 202 205 207 206 205 205 207 211 211 211 211 212 216 220 223 227 225 224 228 230 224 217 216 217 218 222 224 225 227 227 229 233 235 239 241 237 240 245 248 252 252 250 253 261 268 271 273 276 279 283 288 294 298 299 299 298 299 303 305 308 313 320 323 317
218 219 218 215 210 207 205 205 205 200 195 195 194 194 195 195 193 193 195 197 199 200 204 208 208 208 208 210 213 214 212 212 212 212 216 220 224 227 227 227 229 228 224 220 219 219 222 225 229 231 228 230 233 232 235 238 236 239 241 241 247 252 252 256 263 270 273 276 279 282 284 288 292 293 293 294 295 296 298 298 302 310 316 315 313
222 223 223 220 211 207 206 205 203 202 199 194 192 193 195 196 197 197 197 198 200 200 202 205 208 211 212 213 215 216 215 216 215 214 215 218 220 223 226 227 226 225 225 225 225 223 222 224 230 234 232 232 234 234 234 234 233 237 240 242 246 250 255 259 264 271 276 281 285 289 292 292 294 295 294 296 297 294 294 296 300 304 302 298 304
241 223 224 223 215 209 206 203 200 198 195 189 188 194 199 201 202 204 204 204 204 203 202 203 206 210 213 214 215 216 218 219 219 219 218 218 219 221 223 225 225 223 223 226 230 230 225 221 224 228 231 231 232 233 235 233 234 240 244 248 247 244 250 261 267 272 279 285 288 292 294 293 295 297 297 297 296 293 296 299 299 299 296 291 294
16 337 230 225 220 214 206 200 194 189 191 191 193 201 204 205 209 208 206 207 210 210 206 205 207 209 212 214 215 215 217 220 221 221 220 220 220 222 224 224 223 224 223 223 227 232 230 225 225 229 231 231 231 234 236 234 237 244 251 260 263 255 253 264 273 275 278 280 281 283 286 291 295 295 297 297 294 292 291 295 299 297 290 286 286
23 13 330 249 226 215 203 199 195 194 201 206 209 212 207 206 214 213 205 205 211 212 211 210 211 211 212 213 215 215 216 219 221 221 221 221 221 223 225 225 224 225 225 225 225 226 228 228 230 234 235 235 233 236 243 245 245 249 255 263 269 263 260 269 275 274 273 270 267 261 259 266 273 275 278 281 286 294 291 284 287 288 288 289 288
27 18 0 330 241 219 205 207 210 210 213 213 213 215 210 208 216 215 207 207 212 212 211 211 213 214 215 215 215 216 217 220 222 222 221 222 221 222 223 224 225 225 224 226 225 223 224 227 231 235 239 241 238 238 247 253 254 257 262 267 270 265 262 266 266 266 269 265 256 249 244 246 254 257 256 256 263 279 288 284 283 282 286 287 281
27 20 17 9 259 230 215 218 220 220 220 219 217 217 215 214 217 216 210 209 211 211 210 209 210 213 217 218 218 217 218 220 222 223 223 222 221 221 221 223 226 225 223 224 224 224 223 223 227 234 238 241 241 241 246 253 259 264 270 279 284 284 281 276 270 268 263 253 249 249 246 247 255 259 260 259 258 258 264 275 279 274 280 285 278
25 28 25 16 329 250 239 230 226 227 227 226 224 223 221 219 218 217 214 211 209 212 212 210 209 212 216 220 222 221 220 221 222 224 224 224 223 222 222 223 226 226 225 223 222 223 223 221 225 231 236 238 239 240 244 250 254 254 258 264 267 267 266 264 267 270 263 254 253 255 253 252 257 263 266 264 263 261 251 252 262 259 263 279 283
19 29 25 14 5 317 279 255 239 238 237 233 230 226 223 220 216 216 218 217 215 216 216 214 213 216 219 221 223 224 224 222 222 224 225 224 225 225 224 225 227 228 228 225 221 221 220 220 222 228 231 233 235 239 243 245 247 252 259 263 260 260 258 253 252 257 259 260 261 258 256 255 255 261 265 262 266 272 266 252 259 266 267 277 288
25 27 24 19 8 347 329 299 267 253 249 247 240 231 226 222 218 217 221 224 222 222 222 219 218 223 228 227 224 225 226 225 223 225 226 226 226 227 227 227 227 228 229 228 224 220 218 219 221 224 228 229 232 237 237 235 249 263 266 263 259 260 261 258 254 251 251 257 259 256 256 255 252 258 265 266 271 277 278 272 263 268 280 285 290
34 29 26 26 12 355 348 327 303 281 262 254 247 240 233 227 222 221 223 225 224 223 223 220 219 224 230 232 229 227 226 227 226 225 226 227 227 228 229 229 228 228 229 228 225 221 218 221 223 224 227 227 229 232 226 230 255 270 258 248 248 249 252 255 256 252 246 249 255 254 256 257 255 258 264 269 271 268 273 281 275 264 281 290 296
50 46 34 24 12 9 0 348 342 328 302 274 255 245 238 234 231 227 226 227 226 225 223 222 223 226 228 230 232 232 230 229 228 226 226 227 228 229 230 231 231 230 230 229 228 223 220 224 228 228 227 225 227 227 217 227 258 265 241 236 241 243 247 249 251 251 243 245 252 253 255 257 254 254 253 255 262 260 265 283 289 280 285 295 308
73 61 46 20 6 8 4 359 357 348 336 318 287 262 247 242 239 236 232 228 227 229 229 229 230 230 228 227 229 231 231 230 228 225 224 225 227 229 230 231 231 232 232 231 231 228 226 227 227 227 225 225 229 227 215 222 246 246 230 234 235 237 244 246 250 253 242 240 251 253 254 253 246 248 251 245 248 256 262 278 287 273 277 295 317
131 70 29 2 345 344 346 351 352 344 337 331 319 301 275 258 249 244 240 234 230 231 234 235 234 232 230 227 227 228 228 228 226 224 223 223 226 230 231 231 230 230 231 230 230 230 230 229 228 227 226 228 232 228 220 228 242 241 230 232 234 238 244 246 250 253 247 246 252 250 250 254 245 240 244 239 233 238 242 247 245 223 269 309 324
146 60 325 310 307 314 320 327 334 334 331 327 322 314 298 281 266 255 248 242 237 233 233 234 235 235 233 230 228 228 227 226 225 225 225 225 227 229 230 230 229 228 228 226 226 227 228 230 231 229 229 232 233 224 222 233 248 254 246 237 235 239 244 247 247 246 249 251 251 245 242 250 232 199 205 223 218 210 215 218 214 212 299 341 23
138 1 322 312 308 310 311 314 319 321 319 321 321 313 305 300 294 281 266 252 242 237 237 235 234 235 235 232 229 227 228 229 226 226 228 228 229 228 228 227 227 227 225 224 224 223 224 227 231 232 231 233 230 222 225 237 249 259 258 242 236 238 240 245 247 247 250 248 245 242 227 193 174 166 169 191 193 185 184 164 97 70 85 104 106
306 329 314 309 308 309 313 313 315 316 316 323 325 314 311 317 317 310 299 277 252 242 241 239 237 236 235 234 232 229 229 230 228 227 228 229 229 228 226 226 226 227 225 225 225 222 220 221 224 227 228 228 225 223 228 239 248 257 259 243 231 234 237 244 251 254 254 246 240 237 213 179 175 173 159 146 150 147 118 95 84 78 78 83 93
302 314 323 321 316 314 317 317 318 321 320 318 314 302 299 302 301 298 297 291 279 262 249 243 240 239 237 237 235 233 232 231 229 228 227 227 227 227 227 228 228 226 223 222 224 224 221 220 218 220 222 222 222 223 228 239 246 252 256 240 226 228 238 250 256 256 256 245 228 216 194 178 178 171 155 138 131 126 115 103 96 88 81 78 80
317 329 340 338 327 319 319 322 323 322 316 310 306 300 295 292 288 286 279 277 284 281 265 252 244 241 239 238 236 235 234 232 229 226 224 224 226 226 227 227 227 226 221 218 220 221 221 219 217 218 219 215 217 224 232 240 243 246 245 230 219 226 238 242 239 242 249 196 174 191 192 188 183 166 153 141 129 125 122 113 105 99 97 97 93
332 335 334 334 331 325 324 324 320 314 308 306 306 303 297 289 284 283 276 268 269 269 265 259 251 245 242 239 237 236 234 232 229 225 222 222 222 224 225 225 225 225 220 214 213 216 220 220 218 218 213 208 220 233 236 236 237 237 231 215 202 204 207 202 196 184 149 125 124 143 167 173 171 165 159 146 132 129 127 119 113 109 106 102 97
335 334 325 324 330 329 322 317 313 308 306 305 303 299 293 288 284 279 274 269 263 257 255 255 253 251 246 242 240 239 236 234 230 227 225 222 222 223 223 221 220 218 215 212 210 209 211 210 209 207 200 203 225 235 232 229 225 215 201 192 183 177 178 182 176 150 145 169 174 159 153 151 155 161 159 149 138 135 132 126 122 117 109 102 99
337 335 331 330 334 331 319 315 313 309 309 308 304 299 292 287 284 278 272 267 262 258 256 254 253 252 250 247 245 242 240 237 234 231 228 225 223 221 219 216 215 212 211 211 206 199 195 196 200 199 192 200 222 229 224 219 211 195 183 179 172 162 159 161 150 124 128 155 166 163 157 150 152 156 154 148 143 138 133 129 127 122 112 105 104
332 340 342 335 332 325 317 317 316 313 318 317 308 303 295 288 285 279 272 265 261 261 260 258 257 255 253 251 248 245 243 240 237 235 231 227 224 221 217 213 211 210 209 205 200 195 190 189 193 196 194 200 214 217 213 209 201 182 167 167 169 160 146 141 134 129 134 138 140 148 155 154 153 150 145 142 140 137 131 129 129 123 113 106 111
329 342 343 330 323 322 320 321 321 320 324 322 314 308 299 293 290 283 274 269 268 269 266 263 260 258 256 253 249 247 245 242 240 237 234 231 226 221 216 210 207 208 201 193 193 193 182 172 171 183 190 191 194 196 196 193 182 166 158 164 176 167 154 151 147 143 141 137 131 134 143 147 145 141 139 140 141 142 138 133 131 126 120 121 128
337 339 337 326 322 325 323 323 325 325 325 323 318 311 303 298 295 287 283 284 285 284 278 269 260 255 255 254 251 247 245 243 241 239 237 235 229 223 217 208 200 193 186 184 188 184 170 160 159 168 172 164 166 176 172 164 164 167 167 172 176 169 162 158 152 143 136 133 131 131 135 138 138 139 141 142 144 144 141 136 133 131 129 132 132
339 331 331 327 323 325 324 324 328 327 327 326 320 312 308 305 300 296 298 300 298 292 286 277 266 256 250 251 252 250 246 243 241 239 237 234 227 220 214 204 193 187 183 182 177 168 161 157 154 154 153 147 143 151 155 155 163 171 171 169 169 167 159 149 141 135 131 131 129 128 132 136 136 137 138 137 136 136 133 130 130 129 129 130 125
324 322 330 329 323 325 326 326 329 331 329 328 322 317 315 312 307 307 307 306 303 299 292 281 273 266 254 248 248 249 246 242 239 236 233 226 215 210 208 202 192 183 177 171 162 155 153 152 148 145 143 138 131 139 154 159 164 169 170 166 158 151 145 139 135 132 131 130 128 129 134 137 136 135 135 133 131 128 125 124 124 123 124 123 116
318 323 331 329 324 327 328 327 331 335 333 331 327 322 320 317 317 316 314 310 309 309 303 289 280 276 265 251 245 246 245 241 237 234 230 221 212 206 202 195 183 172 166 162 157 153 150 149 148 144 139 132 122 126 147 157 159 161 160 149 138 134 134 133 130 128 130 131 131 134 137 138 135 133 131 129 127 123 120 119 121 122 121 116 107
317 328 332 330 326 325 326 330 335 337 334 333 329 324 321 323 325 324 321 319 317 316 313 301 290 286 279 261 249 245 243 239 236 234 227 213 203 195 187 180 174 168 163 158 155 154 152 151 147 143 137 132 127 128 136 144 144 141 136 130 127 128 131 130 128 130 134 134 134 135 136 135 133 131 129 127 125 124 124 126 127 125 118 108 100
318 336 333 325 321 322 326 334 338 340 340 338 334 330 329 330 332 332 330 326 325 326 325 315 305 304 298 280 257 240 233 231 228 221 210 201 197 190 181 175 173 172 167 160 157 156 154 148 143 140 137 134 133 133 133 132 130 129 129 128 128 130 132 132 132 135 135 132 132 133 134 133 132 132 132 129 127 126 128 129 127 122 113 106 101
334 346 328 321 328 332 335 339 341 344 345 342 341 342 340 339 340 340 339 339 344 352 358 1 8 18 26 43 101 143 147 130 126 141 151 157 166 171 168 167 169 169 164 158 156 157 154 148 142 138 135 132 132 134 134 129 124 125 126 127 128 132 136 136 133 133 131 130 130 131 132 131 130 129 127 124 122 122 122 120 115 109 104 101 96
348 345 328 331 339 337 338 343 347 345 343 344 350 353 352 353 355 355 1 13 26 34 41 45 48 57 68 76 84 96 102 100 98 100 100 100 108 121 121 112 127 158 159 157 157 158 156 151 144 138 134 131 130 134 136 133 129 128 128 126 125 128 131 132 132 131 130 128 128 129 128 126 123 121 119 118 120 120 117 112 109 106 102 97 92
14 5 356 355 349 343 345 351 350 345 345 351 359 3 6 11 15 21 34 45 53 57 60 62 65 70 75 77 81 86 91 93 92 89 86 84 89 102 106 99 94 113 143 149 148 146 145 146 143 139 137 134 133 136 138 137 134 132 130 127 126 126 128 131 134 134 130 127 126 126 124 121 117 116 118 121 122 120 116 113 111 111 106 99 89
129 44 26 15 3 353 355 359 353 350 357 5 8 14 22 29 35 42 51 60 67 70 69 70 72 74 76 80 83 85 89 93 95 94 92 88 87 91 99 101 99 98 107 120 123 123 127 134 136 136 136 135 133 135 138 139 136 132 130 129 129 131 134 138 139 136 131 126 124 123 122 120 120 120 122 127 130 129 124 120 119 114 101 88 79
144 121 56 33 20 11 18 19 4 360 13 20 22 29 39 46 54 60 64 68 71 73 74 75 75 75 77 82 85 87 89 92 94 96 97 95 93 91 93 98 102 101 99 102 109 113 115 118 122 127 129 129 129 132 137 138 135 131 129 130 132 136 140 141 139 134 128 124 124 123 121 124 128 130 134 138 138 136 132 125 120 109 92 82 75
Height
798 801 802 804 807 809 812 813 815 816 819 820 822 823 824 826 827 829 831 833 834 836 837 838 839 839 840 841 841 842 843 844 845 846 847 847 848 850 851 852 852 853 854 854 855 856 857 857 857 858 857 857 857 857 857 857 856 856 855 855 854 853 852 851 851 850 849 848 848 847 846 847 847 847 847 845 845 844 843 844 844 843 842 842 841
798 801 802 803 806 808 811 812 814 816 818 820 821 822 824 825 827 828 830 832 834 835 836 837 838 839 839 840 841 842 843 844 845 846 847 848 849 850 850 852 852 853 854 854 855 856 857 857 857 858 858 858 858 857 857 857 856 856 855 854 853 853 852 851 851 850 848 847 847 847 845 845 846 846 846 844 844 843 843 843 843 842 841 841 841
799 800 800 802 804 807 810 811 813 815 817 819 820 821 823 824 826 828 830 831 833 835 836 837 838 839 840 840 841 842 843 844 845 846 847 848 849 850 850 851 852 853 854 854 855 856 856 857 857 857 858 858 858 858 857 857 857 856 855 855 853 853 851 851 852 850 848 847 847 848 847 846 847 845 844 845 843 843 843 842 842 841 840 840 841
800 799 798 800 803 805 808 810 812 814 815 817 819 820 822 823 825 827 829 831 832 834 835 837 838 839 840 841 842 843 844 844 845 846 847 847 848 849 850 851 852 853 853 854 855 855 856 856 857 857 857 858 857 858 857 856 856 855 855 855 854 852 851 851 851 851 850 849 848 848 846 847 851 847 843 844 843 842 842 841 841 841 839 840 840
798 798 796 797 801 803 806 809 810 812 814 815 816 818 820 822 824 826 828 830 832 833 835 836 838 839 840 841 842 843 844 844 845 845 846 847 848 849 850 851 851 852 853 854 854 854 855 856 856 856 857 857 857 857 857 856 856 855 855 855 854 853 852 851 851 851 851 851 850 850 849 851 852 846 844 845 843 841 841 840 840 840 839 839 839
794 795 795 796 799 802 804 807 808 810 812 813 815 816 818 820 823 825 827 829 831 833 834 836 837 839 840 841 842 842 843 844 844 845 845 846 847 848 849 850 851 852 852 853 853 854 854 855 856 856 856 856 856 856 856 855 855 854 854 854 854 854 853 852 850 850 850 851 850 850 851 852 850 846 847 847 844 842 841 840 839 839 839 838 838
791 792 793 794 797 800 802 805 806 808 810 812 813 815 817 819 821 824 825 827 830 832 833 835 836 838 839 840 840 841 842 843 844 844 845 846 847 848 849 850 850 851 852 852 853 853 854 854 855 855 855 855 855 855 855 854 854 854 854 854 854 854 854 852 851 850 850 850 850 849 849 849 848 847 847 847 847 845 841 839 839 838 838 837 836
789 791 791 793 795 798 800 802 804 806 807 810 812 813 816 818 820 822 824 826 828 830 832 834 835 837 838 839 839 841 841 842 844 844 845 846 847 848 848 849 850 850 851 851 852 853 853 854 854 854 855 854 854 854 854 854 853 854 854 854 854 853 853 852 851 850 849 849 849 849 848 847 847 846 845 846 847 846 843 840 838 838 837 836 836
786 788 789 791 794 796 798 800 802 803 805 808 810 812 815 817 819 821 823 825 827 829 831 832 834 835 837 838 839 840 841 842 843 844 845 846 846 847 848 848 849 849 850 850 851 852 852 853 853 853 853 853 853 853 853 853 853 853 853 853 853 853 852 852 852 851 850 849 849 849 848 847 846 845 845 844 843 845 845 840 837 836 836 835 836
784 784 786 788 791 794 796 799 801 801 803 806 808 810 813 816 818 820 821 824 825 827 829 831 833 834 836 837 838 840 841 841 842 843 844 845 845 846 847 847 848 848 849 849 850 850 851 852 852 852 852 852 852 852 852 852 852 852 852 852 852 852 852 851 851 851 850 849 848 848 848 847 846 845 844 843 841 842 843 839 836 836 835 835 835
784 783 783 785 789 792 795 797 799 800 801 804 807 808 811 814 816 819 820 822 824 826 828 829 831 833 834 836 837 839 840 841 842 842 843 844 844 845 845 846 846 846 847 847 848 849 849 850 850 850 851 851 851 851 851 851 851 851 851 851 851 851 851 851 851 850 850 849 848 848 848 846 845 845 844 844 843 842 842 840 837 836 836 834 834
783 783 782 783 787 790 793 796 798 800 801 802 804 806 809 812 814 817 819 821 823 824 826 828 830 832 833 835 836 838 839 840 841 841 842 842 843 843 843 844 844 845 845 846 846 847 848 848 849 849 849 849 850 849 850 850 850 850 850 850 851 851 851 851 850 850 849 849 848 847 846 845 845 845 844 844 844 842 842 841 837 836 836 833 833
780 781 781 781 784 786 791 795 797 798 801 802 803 804 807 810 813 815 817 820 821 823 825 826 828 830 831 833 835 836 838 839 839 840 840 841 842 842 842 842 843 843 843 844 844 845 846 846 847 847 848 848 848 848 849 849 849 849 850 850 850 850 850 850 850 850 849 848 848 846 846 845 844 844 844 844 843 842 841 839 837 837 835 833 833
777 778 779 779 780 783 788 794 795 797 801 802 801 802 805 808 810 813 816 818 820 822 823 825 826 828 830 832 833 835 836 837 838 838 839 839 840 840 840 840 841 841 841 842 843 843 844 845 845 846 846 847 847 848 848 849 849 849 849 849 849 849 849 849 849 848 848 848 847 847 846 845 844 844 843 843 842 841 840 838 838 837 836 835 834
774 775 776 777 778 781 784 788 792 795 798 799 799 800 803 805 808 811 814 816 818 820 822 823 825 826 828 830 831 833 834 835 836 836 837 837 838 838 838 838 839 839 840 840 841 842 842 843 844 844 845 846 846 847 847 848 848 848 848 848 848 848 848 848 848 847 847 846 846 846 846 845 844 843 843 842 841 841 840 839 839 839 839 838 835
773 774 775 775 776 779 781 783 787 791 794 795 796 798 801 803 806 808 811 814 816 818 820 822 823 825 826 828 829 830 832 833 833 834 835 836 836 836 837 837 838 838 838 839 840 841 841 842 842 843 844 844 845 845 846 846 847 847 847 847 847 847 847 847 847 846 846 846 845 845 845 844 844 843 842 842 841 841 840 840 839 839 841 842 839
773 773 774 774 775 777 779 781 784 786 790 792 794 796 799 801 803 805 808 811 813 816 818 820 822 823 824 826 827 828 829 830 831 832 833 833 834 835 835 836 836 837 837 838 838 839 840 840 841 842 842 843 844 844 844 845 845 845 846 846 846 846 846 846 846 845 845 845 844 844 844 844 843 843 842 841 841 841 841 840 839 838 840 842 841
774 773 773 774 774 777 778 780 783 785 788 790 792 794 796 798 800 803 805 807 810 812 814 817 819 821 822 824 825 826 827 828 828 829 830 831 832 832 833 833 834 835 835 836 837 837 838 839 840 841 841 842 842 842 843 843 844 844 844 844 845 845 845 845 845 844 844 844 844 843 843 843 843 842 841 840 840 841 840 839 839 839 839 839 839
775 774 775 774 774 777 777 779 782 784 786 787 789 792 794 797 798 800 803 804 807 809 811 813 815 817 819 821 822 824 825 826 826 827 828 828 829 830 831 831 832 833 834 835 835 836 837 838 838 839 839 840 840 841 841 842 842 843 843 843 843 843 844 844 844 843 843 843 843 843 843 842 842 841 841 840 839 839 840 839 838 838 838 838 837
777 776 775 774 775 776 777 779 781 783 785 786 787 789 791 795 798 799 800 802 804 806 808 810 812 814 816 817 819 821 822 824 824 825 825 826 827 828 828 829 830 831 832 833 834 835 835 836 837 837 837 838 839 839 840 840 841 842 842 842 842 842 843 843 842 842 841 841 841 841 841 841 841 840 840 839 838 838 838 838 838 837 837 838 837
778 777 776 774 775 776 777 780 781 782 784 785 787 788 790 794 797 797 798 799 801 803 805 808 809 811 812 814 816 818 819 821 822 823 823 823 825 825 826 827 828 829 830 831 832 833 834 834 835 835 836 836 837 838 839 839 840 841 841 841 841 841 842 841 841 841 840 839 839 839 839 839 838 838 837 837 837 837 837 836 836 836 835 836 836
779 777 776 776 776 776 778 780 781 782 783 784 785 787 789 793 795 795 795 796 798 800 803 805 807 808 810 811 813 814 816 818 819 820 820 821 822 823 824 825 826 827 828 829 830 831 832 833 833 834 834 835 836 837 838 838 839 840 840 841 841 840 841 840 839 839 838 838 838 836 836 836 836 836 835 835 835 835 835 835 834 834 834 834 834
779 778 777 777 777 778 779 780 780 781 781 783 784 785 787 790 792 793 793 794 796 798 800 803 804 806 807 809 810 811 813 815 816 817 817 818 819 821 822 823 824 825 826 827 828 829 830 831 832 833 833 834 835 836 837 838 838 839 839 839 840 840 840 840 839 838 837 837 835 834 835 836 836 835 835 835 835 834 833 833 833 833 833 833 833
779 778 778 778 778 778 779 780 780 780 781 782 783 784 786 788 789 790 791 793 795 797 799 801 802 803 805 806 808 809 810 811 812 814 814 815 817 818 819 820 821 822 823 824 826 827 828 829 830 831 832 833 834 835 835 836 836 836 836 837 837 838 838 838 837 837 835 834 834 834 835 835 835 835 835 835 835 833 832 832 833 833 833 832 832
779 779 779 779 779 779 779 780 780 781 781 782 783 784 785 786 788 789 790 792 794 796 798 799 800 802 802 804 805 807 807 808 809 810 811 813 814 815 816 817 819 820 820 822 823 825 826 827 828 829 830 831 832 832 833 833 834 834 835 835 835 835 835 835 835 834 834 833 833 833 833 834 834 834 834 834 834 834 833 831 831 832 831 832 832
781 780 780 780 779 780 780 781 781 781 782 782 783 784 784 785 787 788 789 791 793 795 796 797 799 800 801 801 802 804 805 805 807 808 809 810 811 812 813 815 816 817 818 819 821 822 824 825 826 827 828 828 829 830 830 831 832 832 832 833 833 833 833 833 833 833 832 832 832 832 832 832 833 833 834 834 834 834 833 831 831 831 831 831 831
782 781 781 780 780 781 781 781 781 781 782 783 783 784 784 785 786 786 788 789 791 793 794 795 796 797 798 799 799 801 802 803 804 805 807 808 808 810 811 812 813 815 816 817 818 820 821 822 823 824 825 826 826 827 828 828 829 829 830 831 831 831 831 831 831 831 830 830 830 831 831 831 832 833 833 833 834 834 832 831 831 830 830 831 830
782 781 782 781 781 781 781 782 782 782 782 782 783 783 783 784 785 785 787 788 789 790 791 792 793 794 795 796 797 799 799 801 802 803 805 806 807 808 808 810 811 812 813 814 815 817 818 819 821 821 822 823 823 824 825 825 826 827 828 828 829 829 829 829 829 829 829 829 829 829 829 829 830 831 831 832 833 832 831 831 830 830 830 830 830
782 782 782 782 783 782 782 783 783 783 783 782 782 782 782 783 783 784 785 786 788 788 789 790 791 791 792 793 795 796 798 799 800 801 803 804 805 806 807 808 809 810 811 812 813 814 815 816 818 819 820 820 821 822 822 823 824 825 826 827 827 828 827 827 827 827 827 827 827 827 827 828 828 829 830 831 831 831 831 831 830 829 829 829 829
782 782 781 782 783 782 782 783 783 784 784 783 782 782 782 782 782 783 784 785 786 787 787 788 788 789 790 791 792 794 795 797 798 799 800 801 802 804 805 805 806 808 809 810 811 811 812 813 814 816 817 817 818 819 819 820 822 823 824 825 825 826 826 826 826 826 826 826 826 826 826 826 827 827 828 829 829 830 830 830 829 829 829 829 828
781 782 781 781 781 781 782 782 783 784 783 783 783 782 782 782 781 782 782 783 784 785 785 786 786 787 788 789 790 791 793 794 795 796 797 798 800 801 802 803 804 805 806 807 808 809 809 810 811 812 814 814 815 816 816 817 819 820 821 822 823 823 824 824 824 824 825 825 825 825 825 825 826 826 826 826 828 829 829 829 828 828 829 829 828
781 781 781 781 781 781 781 781 782 783 783 783 783 782 782 782 781 781 781 781 782 782 783 783 784 785 785 786 787 788 790 791 792 793 794 795 797 798 799 800 801 802 803 804 805 806 806 807 808 809 810 811 812 812 813 815 816 817 819 820 821 822 822 823 823 823 824 824 824 825 824 825 825 825 825 825 826 828 828 827 828 828 828 829 829
781 781 781 782 781 781 781 781 781 782 782 783 783 782 782 782 782 781 781 780 780 780 781 781 781 782 783 783 785 785 786 788 789 790 791 792 794 795 796 797 798 799 800 801 802 803 803 804 806 807 808 809 809 809 810 812 813 815 816 817 819 820 821 822 822 822 823 823 824 824 824 825 825 825 825 825 826 827 827 828 828 829 830 830 831
780 779 780 781 781 781 781 781 782 782 782 782 782 782 782 782 782 781 780 780 780 779 780 779 779 780 780 781 782 782 783 785 786 787 788 789 790 791 792 794 795 796 797 798 799 800 801 802 803 804 805 806 805 806 808 810 811 812 813 815 817 818 819 820 821 821 822 822 823 823 823 825 826 826 825 825 826 827 828 828 829 829 831 832 832
779 778 780 781 781 782 782 782 782 782 782 782 781 781 781 781 781 780 780 779 779 778 778 778 777 777 778 778 779 779 780 781 782 784 784 785 787 788 789 791 792 793 794 795 796 798 799 800 801 801 803 803 803 804 806 808 809 810 811 813 815 816 818 819 819 820 820 821 821 822 822 824 826 826 826 825 826 827 828 829 829 830 831 832 833
779 779 781 781 782 782 782 782 783 782 782 781 781 780 780 779 779 779 778 778 778 777 777 776 775 775 775 775 776 776 777 777 779 780 780 781 783 784 786 788 789 790 791 792 793 795 796 797 798 799 800 801 801 802 804 805 806 808 809 810 813 814 816 816 817 818 819 820 821 821 822 824 825 825 825 825 826 827 828 830 830 831 832 833 834
779 780 781 781 782 782 782 782 782 781 781 780 780 779 778 778 777 777 776 776 776 775 775 774 774 773 773 773 773 773 774 774 775 776 777 778 779 781 783 785 786 787 788 790 791 792 793 795 796 797 798 799 799 800 802 803 805 806 807 809 812 812 812 813 815 816 817 818 819 820 821 823 824 825 825 826 828 829 829 830 831 832 833 834 836
779 780 781 781 782 782 782 782 781 780 780 779 779 778 777 776 776 775 774 774 773 773 772 772 771 771 770 770 771 771 771 771 771 772 773 774 775 777 779 781 783 784 785 787 788 789 791 792 794 795 796 796 796 798 800 801 803 805 806 809 811 811 812 813 814 815 816 818 819 820 821 822 823 824 825 826 828 830 830 831 832 833 834 836 837
779 780 781 781 782 782 781 780 779 779 778 778 777 776 775 775 774 773 772 771 771 770 770 769 769 769 768 768 768 768 768 768 767 768 769 770 771 773 776 778 780 781 782 784 786 788 789 791 793 794 794 794 795 796 798 800 801 803 805 807 809 810 812 813 814 815 818 820 820 820 821 822 822 824 825 827 829 831 831 832 833 834 835 837 839
778 780 781 781 781 781 780 779 779 778 777 777 776 775 774 773 772 771 770 769 768 768 767 767 767 766 766 766 765 765 764 764 764 765 765 766 767 770 772 774 777 778 780 782 784 787 788 789 790 792 794 795 796 796 797 799 800 801 803 804 806 808 811 813 815 817 818 819 820 821 821 822 823 825 827 828 830 831 832 833 834 835 836 838 839
779 780 781 781 781 780 780 779 778 778 777 776 775 774 773 772 770 769 768 766 766 765 765 765 764 764 764 763 762 762 761 761 761 762 762 762 764 766 769 771 774 775 777 780 783 785 786 787 788 791 793 795 796 796 797 798 799 801 802 803 805 807 810 813 814 816 817 818 820 821 822 824 825 827 828 829 831 832 833 834 836 837 838 839 840
780 780 781 781 780 780 779 779 778 777 776 775 774 773 772 770 769 767 766 765 764 763 762 762 761 760 760 760 759 759 759 758 759 759 759 760 761 764 766 768 770 772 775 778 781 783 784 786 788 790 792 794 795 796 797 798 799 800 802 804 805 808 810 811 812 814 816 819 821 822 823 826 827 828 830 831 832 834 835 836 838 839 840 841 842
779 779 780 780 780 779 779 778 777 776 775 774 773 772 770 769 768 766 765 764 762 761 760 758 757 757 756 756 757 756 756 756 756 757 757 758 759 761 763 765 768 770 773 777 778 780 783 785 787 789 792 793 795 796 797 798 798 799 801 803 804 806 808 810 811 814 817 819 822 823 825 827 829 830 832 833 835 836 837 838 840 841 842 843 844
779 779 779 779 780 779 778 777 776 775 774 773 772 771 769 768 766 765 764 762 760 759 757 756 755 754 753 753 753 753 753 753 753 755 756 756 757 758 760 763 766 768 772 774 776 778 781 784 786 788 790 792 794 796 798 799 798 798 800 801 803 806 808 810 812 815 818 820 822 824 827 829 830 832 834 836 837 838 839 841 842 844 845 845 846
778 779 779 780 780 779 778 777 775 775 774 773 771 770 768 766 765 764 762 761 759 757 756 754 753 752 751 751 750 751 751 751 752 753 754 755 756 757 759 761 764 766 769 772 774 777 780 782 784 786 788 790 792 795 799 800 799 798 799 801 804 807 809 811 814 816 818 821 823 825 828 831 833 834 836 838 839 841 842 843 844 846 847 847 847
778 779 780 779 778 778 777 776 775 775 773 772 771 769 768 766 764 763 761 760 758 756 755 753 752 751 750 750 749 749 750 750 751 751 752 753 755 757 758 760 762 764 767 769 772 775 778 781 784 785 786 788 790 793 798 800 799 799 800 803 806 808 811 813 815 818 821 823 825 828 830 832 834 836 838 840 842 843 845 846 847 848 848 848 848
779 780 780 779 778 777 777 776 776 775 773 771 770 769 767 766 764 763 761 760 758 757 755 753 752 751 750 750 749 749 749 750 750 750 751 753 755 756 758 760 761 763 765 767 770 773 776 779 783 785 786 788 790 793 797 799 799 799 801 805 808 810 812 815 817 821 824 826 828 830 832 834 836 838 840 842 844 846 848 849 849 850 850 850 850
780 780 780 779 778 778 777 777 776 775 773 772 770 769 768 766 765 763 762 761 759 758 756 755 754 753 752 751 751 751 751 751 752 752 753 754 756 757 759 761 763 764 764 766 769 771 774 776 779 781 784 787 791 794 797 798 799 800 802 805 809 812 815 817 820 823 825 828 830 832 834 836 838 841 843 845 847 848 849 850 851 851 852 852 852
779 780 780 779 779 779 778 777 777 775 774 772 770 769 768 767 766 765 763 762 761 760 759 758 757 756 755 755 755 755 754 754 754 755 756 758 759 760 760 762 764 767 767 767 768 771 774 776 777 779 782 785 790 795 798 798 800 803 804 806 810 814 817 820 823 825 827 829 832 834 837 839 841 843 845 846 848 849 850 851 852 853 853 853 853
779 780 780 779 779 779 778 778 777 775 774 772 771 770 769 767 767 766 765 764 763 762 761 761 760 760 760 759 759 760 759 758 758 758 759 761 763 765 764 764 766 770 773 772 772 774 779 781 781 781 783 786 788 793 798 800 802 806 808 810 813 817 819 822 825 827 829 832 834 837 840 841 843 845 846 847 849 850 851 852 852 853 853 853 853
780 780 780 780 780 780 779 779 778 776 774 773 772 771 770 769 768 767 767 766 765 764 764 764 764 764 764 763 764 764 764 763 763 762 762 763 765 768 770 770 770 773 778 780 779 781 785 789 789 786 787 789 792 795 799 801 803 807 810 813 817 820 823 826 828 829 831 834 836 839 841 843 845 846 847 848 849 850 850 851 852 853 853 854 854